• In Hungary
  • List of Countries
  • For 7 days
  • Water Temperature
  • Satellite Maps
  • Weather Map
  • News
  • Weather Widgets
  • user-avatar
    Login

    Hourly Weather Gricovskiy

    Today, 22 September, Saturday

    Time Temperature Precipitation Wind Pressure Humidity
    00:00 +17°C° 0 mm 2 mps 746 mmHg 80%
    01:00 +16°C° 0 mm 2 mps 746 mmHg 81%
    02:00 +16°C° 0 mm 2 mps 746 mmHg 81%
    03:00 +16°C° 0 mm 2 mps 746 mmHg 82%
    04:00 +16°C° 0 mm 2 mps 746 mmHg 82%
    05:00 +15°C° 0 mm 2 mps 745 mmHg 82%
    06:00 +15°C° 0 mm 2 mps 745 mmHg 83%
    07:00 +16°C° 0 mm 3 mps 745 mmHg 78%
    08:00 +18°C° 0 mm 3 mps 745 mmHg 74%
    09:00 +19°C° 0 mm 3 mps 745 mmHg 69%
    10:00 +21°C° 0 mm 4 mps 745 mmHg 65%
    11:00 +22°C° 0 mm 4 mps 745 mmHg 60%
    12:00 +25°C° 0 mm 5 mps 744 mmHg 56%
    13:00 +25°C° 0 mm 5 mps 744 mmHg 54%
    14:00 +25°C° 0 mm 5 mps 744 mmHg 53%
    15:00 +26°C° 0 mm 6 mps 743 mmHg 52%
    16:00 +25°C° 0 mm 5 mps 743 mmHg 57%
    17:00 +22°C° 0 mm 5 mps 742 mmHg 62%
    18:00 +21°C° 0 mm 4 mps 742 mmHg 66%
    19:00 +21°C° 0 mm 4 mps 742 mmHg 66%
    20:00 +20°C° 0 mm 5 mps 741 mmHg 65%
    21:00 +20°C° 0 mm 5 mps 741 mmHg 64%
    22:00 +19°C° 0 mm 5 mps 741 mmHg 63%
    23:00 +19°C° 0 mm 5 mps 740 mmHg 61%

    Tomorrow, 23 September, Sunday

    Time Temperature Precipitation Wind Pressure Humidity
    00:00 +19°C° 0 mm 6 mps 740 mmHg 59%
    01:00 +19°C° 0 mm 5 mps 740 mmHg 60%
    02:00 +17°C° 0 mm 5 mps 739 mmHg 60%
    03:00 +17°C° 0 mm 5 mps 739 mmHg 61%
    04:00 +16°C° 0 mm 5 mps 739 mmHg 63%
    05:00 +16°C° 0 mm 5 mps 738 mmHg 66%
    06:00 +15°C° 0 mm 4 mps 738 mmHg 68%
    07:00 +15°C° 0.3 mm 4 mps 738 mmHg 71%
    08:00 +15°C° 0.3 mm 4 mps 738 mmHg 74%
    09:00 +15°C° 0.3 mm 4 mps 738 mmHg 77%
    10:00 +13°C° 1 mm 5 mps 738 mmHg 79%
    11:00 +11°C° 1 mm 6 mps 738 mmHg 82%
    12:00 +10°C° 1 mm 6 mps 738 mmHg 85%
    13:00 +10°C° 0.7 mm 6 mps 738 mmHg 84%
    14:00 +9°C° 0.7 mm 5 mps 739 mmHg 83%
    15:00 +10°C° 0.7 mm 4 mps 739 mmHg 82%
    16:00 +10°C° 0.1 mm 4 mps 739 mmHg 83%
    17:00 +11°C° 0.1 mm 3 mps 739 mmHg 83%
    18:00 +11°C° 0.1 mm 3 mps 739 mmHg 84%
    19:00 +10°C° 0 mm 3 mps 739 mmHg 86%
    20:00 +10°C° 0 mm 3 mps 740 mmHg 88%
    21:00 +9°C° 0 mm 3 mps 740 mmHg 90%
    22:00 +9°C° 0 mm 3 mps 740 mmHg 91%
    23:00 +9°C° 0 mm 3 mps 740 mmHg 91%

    Day after tomorrow, 24 September, Monday

    Time Temperature Precipitation Wind Pressure Humidity
    00:00 +8°C° 0 mm 3 mps 740 mmHg 92%
    01:00 +8°C° 0 mm 3 mps 740 mmHg 92%
    02:00 +8°C° 0 mm 3 mps 740 mmHg 92%
    03:00 +7°C° 0 mm 3 mps 740 mmHg 93%
    04:00 +7°C° 0 mm 3 mps 740 mmHg 93%
    05:00 +7°C° 0 mm 3 mps 740 mmHg 93%
    06:00 +7°C° 0 mm 3 mps 740 mmHg 93%
    07:00 +8°C° 0 mm 3 mps 740 mmHg 88%
    08:00 +9°C° 0 mm 3 mps 740 mmHg 83%
    09:00 +10°C° 0 mm 3 mps 740 mmHg 78%
    10:00 +12°C° 0 mm 4 mps 740 mmHg 72%
    11:00 +13°C° 0 mm 5 mps 740 mmHg 66%
    12:00 +15°C° 0 mm 5 mps 740 mmHg 60%
    13:00 +14°C° 0.1 mm 6 mps 739 mmHg 62%
    14:00 +13°C° 0.1 mm 6 mps 738 mmHg 65%
    15:00 +13°C° 0.1 mm 6 mps 737 mmHg 68%
    16:00 +11°C° 2.1 mm 6 mps 736 mmHg 74%
    17:00 +10°C° 2.1 mm 7 mps 735 mmHg 81%
    18:00 +9°C° 2.1 mm 7 mps 734 mmHg 87%
    19:00 +9°C° 2.8 mm 8 mps 733 mmHg 87%
    20:00 +8°C° 2.8 mm 9 mps 731 mmHg 88%
    21:00 +9°C° 2.8 mm 11 mps 730 mmHg 88%
    22:00 +9°C° 1.1 mm 11 mps 729 mmHg 86%
    23:00 +9°C° 1.1 mm 11 mps 727 mmHg 85%

    25 September, Tuesday

    Time Temperature Precipitation Wind Pressure Humidity
    00:00 +9°C° 1.1 mm 11 mps 726 mmHg 83%
    01:00 +9°C° 0.1 mm 11 mps 725 mmHg 82%
    02:00 +8°C° 0.1 mm 10 mps 725 mmHg 81%
    03:00 +7°C° 0.1 mm 10 mps 724 mmHg 80%
    04:00 +7°C° 0.1 mm 11 mps 724 mmHg 80%
    05:00 +7°C° 0.1 mm 11 mps 724 mmHg 80%
    06:00 +6°C° 0.1 mm 11 mps 723 mmHg 80%
    07:00 +6°C° 0.3 mm 11 mps 724 mmHg 81%
    08:00 +6°C° 0.3 mm 11 mps 724 mmHg 82%
    09:00 +6°C° 0.3 mm 10 mps 724 mmHg 83%
    10:00 +6°C° 0.4 mm 11 mps 725 mmHg 82%
    11:00 +6°C° 0.4 mm 11 mps 726 mmHg 82%
    12:00 +6°C° 0.4 mm 11 mps 727 mmHg 81%
    13:00 +4°C° 0.4 mm 11 mps 728 mmHg 81%
    14:00 +4°C° 0.4 mm 11 mps 729 mmHg 80%
    15:00 +4°C° 0.4 mm 11 mps 730 mmHg 80%
    16:00 +4°C° 0.4 mm 11 mps 730 mmHg 80%
    17:00 +4°C° 0.4 mm 11 mps 731 mmHg 81%
    18:00 +3°C° 0.4 mm 10 mps 732 mmHg 81%
    19:00 +3°C° 0.3 mm 10 mps 733 mmHg 81%
    20:00 +3°C° 0.3 mm 10 mps 733 mmHg 80%
    21:00 +3°C° 0.3 mm 9 mps 734 mmHg 80%
    22:00 +3°C° 0.1 mm 9 mps 735 mmHg 79%
    23:00 +2°C° 0.1 mm 8 mps 735 mmHg 79%

    26 September, Wednesday

    Time Temperature Precipitation Wind Pressure Humidity
    00:00 +2°C° 0.1 mm 8 mps 736 mmHg 78%
    01:00 +2°C° 0 mm 8 mps 736 mmHg 79%
    02:00 +2°C° 0 mm 7 mps 736 mmHg 79%
    03:00 +2°C° 0 mm 7 mps 737 mmHg 79%
    04:00 0°C° 0 mm 7 mps 737 mmHg 81%
    05:00 0°C° 0 mm 7 mps 738 mmHg 82%
    06:00 -1°C° 0 mm 6 mps 738 mmHg 83%
    07:00 +1°C° 0 mm 6 mps 739 mmHg 80%
    08:00 +1°C° 0 mm 6 mps 739 mmHg 77%
    09:00 +2°C° 0 mm 6 mps 740 mmHg 74%
    10:00 +3°C° 0 mm 6 mps 740 mmHg 69%
    11:00 +5°C° 0 mm 6 mps 741 mmHg 64%
    12:00 +7°C° 0 mm 6 mps 741 mmHg 58%
    13:00 +7°C° 0 mm 6 mps 742 mmHg 56%
    14:00 +8°C° 0 mm 5 mps 742 mmHg 53%
    15:00 +8°C° 0 mm 5 mps 743 mmHg 51%
    16:00 +7°C° 0 mm 4 mps 743 mmHg 55%
    17:00 +7°C° 0 mm 3 mps 744 mmHg 60%
    18:00 +6°C° 0 mm 2 mps 744 mmHg 65%
    19:00 +6°C° 0 mm 2 mps 745 mmHg 66%
    20:00 +5°C° 0 mm 2 mps 745 mmHg 68%
    21:00 +4°C° 0 mm 2 mps 746 mmHg 69%
    22:00 +4°C° 0 mm 2 mps 746 mmHg 70%
    23:00 +4°C° 0 mm 2 mps 746 mmHg 71%

    27 September, Thursday

    Time Temperature Precipitation Wind Pressure Humidity
    00:00 +4°C° 0 mm 2 mps 747 mmHg 72%
    01:00 +5°C° 0 mm 1 mps 747 mmHg 71%
    02:00 +5°C° 0 mm 1 mps 747 mmHg 71%
    03:00 +5°C° 0 mm 1 mps 748 mmHg 71%
    04:00 +5°C° 0 mm 1 mps 748 mmHg 71%
    05:00 +5°C° 0 mm 1 mps 748 mmHg 72%
    06:00 +5°C° 0 mm 1 mps 748 mmHg 72%
    07:00 +5°C° 0 mm 2 mps 748 mmHg 71%
    08:00 +6°C° 0 mm 2 mps 748 mmHg 70%
    09:00 +7°C° 0 mm 3 mps 748 mmHg 68%
    10:00 +7°C° 0 mm 4 mps 748 mmHg 67%
    11:00 +8°C° 0 mm 5 mps 748 mmHg 65%
    12:00 +9°C° 0 mm 6 mps 747 mmHg 63%
    13:00 +10°C° 0 mm 6 mps 747 mmHg 63%
    14:00 +10°C° 0 mm 6 mps 746 mmHg 63%
    15:00 +10°C° 0 mm 7 mps 746 mmHg 62%
    16:00 +10°C° 0 mm 7 mps 745 mmHg 65%
    17:00 +9°C° 0 mm 6 mps 745 mmHg 68%
    18:00 +9°C° 0 mm 6 mps 744 mmHg 71%
    19:00 +9°C° 0 mm 7 mps 744 mmHg 71%
    20:00 +8°C° 0 mm 7 mps 744 mmHg 71%
    21:00 +7°C° 0 mm 8 mps 743 mmHg 71%
    22:00 +7°C° 0 mm 8 mps 743 mmHg 70%
    23:00 +7°C° 0 mm 8 mps 743 mmHg 69%
    Show more